Probability
0 0 0 0 0 0 0 0 0 0 0 0 0 0 0 0 0 0 0 0 0 0 0 0 0 0 0 0 0 0 0 0 0 0 0 0 0 0 0 0 0 0 0
0 0 0 0 0 0 0 0 0 0 0 0 0 0 0 0 0 0 0 0 0 0 0 0 0 0 0 0 0 0 0 0 0 0 0 0 0 0 0 0 0 0 0
0 0 0 0 0 0 0 0 0 0 0 0 0 0 0 0 0 0 0 0 0 0 0 0 0 0 0 0 0 0 0 0 0 0 0 0 0 0 0 0 0 0 0
0 0 0 0 0 0 0 0 0 0 0 0 0 0 0 0 0 0 0 0 0 0 0 0 0 0 0 0 0 0 0 0 0 0 0 0 0 0 0 0 0 0 0
0 0 0 0 0 0 0 0 0 0 0 0 0 0 0 0 0 0 0 0 0 0 0 0 0 0 0 0 0 0 0 0 0 0 0 0 0 0 0 0 0 0 0
0 0 0 0 0 0 0 0 0 0 0 0 0 0 0 0 0 0 0 0 0 0 0 0 0 0 0 0 0 0 0 0 0 0 0 0 0 0 0 0 0 0 0
0 0 0 0 0 0 0 0 0 0 0 0 0 0 0 0 0 0 0 0 0 0 0 0 0 0 0 0 0 0 0 0 0 0 0 0 0 0 0 0 0 0 0
0 0 0 0 0 0 0 0 0 0 0 0 0 0 0 0 0 0 0 0 0 0 0 0 0 0 0 0 0 0 0 0 0 0 0 0 0 0 0 0 0 0 0
0 0 0 0 0 0 0 0 0 0 0 0 0 0 0 0 0 0 0 0 0 0 0 0 0 0 0 0 0 0 0 0 0 0 0 0 0 0 0 0 0 0 0
0 0 0 0 0 0 0 0 0 0 0 0 0 0 0 0 0 0 0 0 0 0 0 0 0 0 0 0 0 0 0 0 0 0 0 0 0 0 0 0 0 0 0
0 0 0 0 0 0 0 0 0 0 0 0 0 0 0 0 0 0 0 0 0 0 0 0 0 0 0 0 0 0 0 0 0 0 0 0 0 0 0 0 0 0 0
0 0 0 0 0 0 0 0 0 0 0 0 0 0 0 0 0 0 0 0 0 0 0 0 0 0 0 0 0 0 0 0 0 0 0 0 0 0 0 0 0 0 0
0 0 0 0 0 0 0 0 0 0 0 0 0 0 0 0 0 0 0 0 0 0 0 0 0 0 0 0 0 0 0 0 0 0 0 0 0 0 0 0 0 0 0
0 0 0 0 0 0 0 0 0 0 0 0 0 0 0 0 0 0 0 0 0 0 0 0 0 0 0 0 0 0 0 0 0 0 0 0 0 0 0 0 0 0 0
0 0 0 0 0 0 0 0 0 0 0 0 0 0 0 0 0 0 0 0 0 0 0 0 0 0 0 0 0 0 0 0 0 0 0 0 0 0 0 0 0 0 0
0 0 0 0 0 0 0 0 0 0 0 0 0 0 0 0 0 0 0 0 0 0 0 0 0 0 0 0 0 0 0 0 0 0 0 0 0 0 0 0 0 0 0
0 0 0 0 0 0 0 0 0 0 0 0 0 0 0 0 0 0 0 0 0 0 0 0 0 0 0 0 0 0 0 0 0 0 0 0 0 0 0 0 0 0 0
0 0 0 0 0 0 0 0 0 0 0 0 0 0 0 0 0 0 0 0 0 0 0 0 0 0 0 0 0 0 0 0 0 0 0 0 0 0 0 0 0 0 0
0 0 0 0 0 0 0 0 0 0 0 0 0 0 0 0 0 0 0 0 0 0 0 0 0 0 0 0 0 0 0 0 0 0 0 0 0 0 0 0 0 0 0
0 0 0 0 0 0 0 0 0 0 0 0 0 0 0 0 0 0 0 0 0 0 0 0 0 0 0 0 0 0 0 0 0 0 0 0 0 0 0 0 0 0 0
0 0 0 0 0 0 0 0 0 0 0 0 0 0 0 0 0 0 0 0 0 0 0 0 0 0 0 0 0 0 0 0 0 0 0 0 0 0 0 0 0 0 0
0 0 0 0 0 0 0 0 0 0 0 0 0 0 0 0 0 0 0 0 0 0 0 0 0 0 0 0 0 0 0 0 0 0 0 0 0 0 0 0 0 0 0
0 0 0 0 0 0 0 0 0 0 0 0 0 0 0 0 0 0 0 0 0 0 0 0 0 0 0 0 0 0 0 0 0 0 0 0 0 0 0 0 0 0 0
0 0 0 0 0 0 0 0 0 0 0 0 0 0 0 0 0 0 0 0 0 0 0 0 0 0 0 0 0 0 0 0 0 0 0 0 0 0 0 0 0 0 0
0 0 0 0 0 0 0 0 0 0 0 0 0 0 0 0 0 0 0 0 0 0 0 0 0 0 0 0 0 0 0 0 0 0 0 0 0 0 0 0 0 0 0
0 0 0 0 0 0 0 0 0 0 0 0 0 0 0 0 0 0 0 0 0 0 0 0 0 0 0 0 0 0 0 0 0 0 0 0 0 0 0 0 0 0 0
Height
5774 5774 5773 5773 5773 5774 5775 5776 5777 5778 5779 5781 5782 5783 5785 5786 5787 5788 5790 5791 5792 5794 5795 5797 5799 5800 5802 5803 5805 5807 5809 5811 5813 5815 5817 5819 5821 5823 5824 5825 5826 5827 5828
5774 5773 5773 5772 5772 5772 5772 5772 5773 5773 5774 5775 5776 5777 5778 5779 5780 5781 5782 5784 5785 5787 5788 5790 5791 5793 5795 5796 5798 5800 5801 5804 5806 5808 5811 5813 5815 5816 5818 5819 5820 5821 5821
5776 5774 5773 5772 5771 5771 5770 5770 5770 5770 5771 5771 5772 5772 5773 5774 5774 5775 5776 5778 5779 5781 5782 5784 5785 5786 5788 5790 5791 5793 5795 5797 5800 5802 5804 5807 5809 5811 5812 5813 5814 5815 5815
5777 5775 5774 5772 5771 5771 5770 5770 5769 5769 5769 5769 5769 5769 5769 5769 5770 5771 5772 5773 5774 5775 5777 5778 5779 5781 5782 5784 5786 5788 5790 5792 5794 5796 5799 5801 5803 5804 5806 5807 5808 5808 5808
5780 5778 5776 5774 5773 5772 5770 5769 5768 5768 5767 5767 5767 5767 5767 5766 5766 5767 5767 5768 5769 5770 5772 5773 5775 5776 5777 5779 5781 5783 5785 5787 5789 5791 5793 5795 5797 5798 5799 5800 5801 5802 5802
5783 5780 5778 5776 5775 5773 5771 5770 5769 5768 5767 5766 5765 5765 5764 5764 5764 5763 5764 5764 5765 5766 5768 5769 5770 5772 5773 5775 5776 5778 5780 5782 5784 5785 5787 5789 5791 5792 5793 5794 5795 5795 5796
5786 5783 5781 5779 5777 5775 5773 5771 5770 5768 5767 5765 5764 5763 5762 5761 5760 5760 5760 5761 5761 5762 5764 5765 5766 5768 5769 5771 5772 5774 5775 5777 5779 5780 5782 5783 5785 5786 5787 5788 5788 5789 5789
5789 5787 5784 5781 5779 5777 5775 5773 5771 5769 5767 5765 5763 5761 5760 5759 5758 5758 5757 5758 5758 5759 5760 5761 5762 5764 5765 5766 5768 5769 5771 5772 5774 5775 5777 5778 5779 5780 5781 5782 5782 5782 5782
5793 5790 5787 5784 5781 5779 5776 5774 5771 5769 5767 5764 5762 5760 5758 5757 5756 5755 5755 5755 5755 5756 5757 5758 5759 5760 5761 5762 5763 5765 5766 5768 5769 5770 5771 5773 5773 5774 5775 5776 5777 5777 5777
5796 5793 5790 5787 5784 5781 5778 5775 5772 5770 5767 5764 5762 5759 5757 5755 5754 5753 5752 5752 5753 5753 5753 5754 5755 5756 5757 5758 5759 5761 5762 5763 5765 5766 5767 5768 5769 5770 5770 5771 5771 5772 5772
5800 5797 5793 5790 5787 5783 5780 5777 5774 5771 5768 5765 5762 5759 5757 5755 5753 5752 5751 5751 5751 5751 5751 5751 5752 5753 5753 5754 5755 5757 5758 5760 5761 5762 5763 5763 5764 5765 5766 5766 5767 5767 5767
5803 5800 5796 5793 5790 5786 5783 5780 5776 5773 5769 5766 5763 5760 5757 5755 5753 5751 5750 5750 5749 5749 5749 5750 5750 5750 5751 5752 5753 5754 5755 5756 5757 5758 5759 5760 5760 5761 5761 5762 5763 5763 5763
5807 5803 5800 5796 5793 5789 5786 5782 5779 5775 5772 5768 5765 5762 5759 5756 5754 5752 5751 5750 5749 5748 5748 5748 5749 5749 5749 5750 5751 5752 5752 5753 5754 5755 5755 5756 5757 5758 5758 5759 5759 5759 5760
5811 5807 5803 5800 5796 5792 5789 5785 5782 5778 5775 5771 5768 5765 5762 5759 5756 5754 5752 5751 5750 5749 5748 5748 5748 5748 5748 5748 5749 5749 5750 5751 5751 5752 5753 5753 5754 5755 5755 5756 5756 5756 5757
5814 5811 5807 5803 5799 5796 5792 5788 5785 5781 5778 5775 5771 5768 5765 5762 5760 5757 5755 5753 5752 5751 5750 5749 5749 5748 5748 5747 5748 5748 5749 5749 5749 5750 5751 5751 5752 5752 5753 5753 5754 5754 5755
5817 5814 5810 5806 5803 5799 5795 5792 5788 5785 5781 5778 5775 5772 5769 5766 5763 5761 5758 5756 5755 5754 5752 5751 5750 5749 5749 5748 5748 5748 5749 5749 5748 5749 5749 5749 5750 5750 5751 5752 5753 5753 5754
5820 5816 5813 5810 5806 5803 5799 5795 5792 5789 5785 5782 5779 5776 5773 5770 5767 5765 5762 5760 5759 5757 5756 5754 5753 5752 5751 5750 5750 5750 5749 5749 5749 5749 5749 5749 5749 5750 5751 5751 5752 5753 5753
5822 5819 5816 5813 5809 5806 5802 5799 5795 5792 5789 5786 5783 5780 5777 5774 5772 5769 5767 5765 5763 5761 5760 5758 5757 5756 5755 5754 5753 5752 5751 5751 5750 5750 5750 5750 5750 5750 5751 5752 5752 5753 5753
5823 5821 5818 5815 5812 5809 5805 5802 5799 5796 5793 5790 5787 5784 5782 5779 5776 5774 5772 5770 5768 5766 5764 5763 5761 5760 5759 5757 5757 5756 5755 5754 5753 5753 5753 5752 5752 5753 5753 5753 5753 5753 5753
5824 5822 5819 5817 5814 5811 5808 5805 5802 5799 5796 5793 5791 5788 5786 5783 5781 5778 5776 5774 5772 5771 5769 5767 5766 5764 5763 5762 5761 5760 5759 5758 5757 5756 5756 5756 5755 5755 5755 5755 5755 5755 5755
5825 5822 5820 5818 5815 5813 5810 5808 5805 5802 5799 5797 5794 5792 5789 5787 5785 5782 5780 5778 5776 5775 5773 5771 5770 5768 5767 5766 5765 5764 5763 5762 5761 5760 5760 5759 5759 5758 5758 5758 5757 5757 5756
5825 5823 5820 5818 5816 5814 5812 5810 5807 5805 5802 5799 5797 5795 5792 5790 5788 5786 5784 5782 5780 5778 5777 5775 5773 5772 5771 5769 5768 5767 5766 5765 5765 5764 5763 5762 5762 5761 5761 5760 5759 5759 5758
5824 5822 5820 5818 5816 5814 5812 5810 5808 5806 5804 5802 5799 5797 5795 5793 5791 5789 5787 5785 5783 5782 5780 5778 5777 5776 5774 5773 5772 5771 5770 5769 5768 5767 5766 5765 5764 5763 5763 5762 5761 5760 5759
5822 5821 5819 5817 5815 5814 5812 5810 5808 5807 5805 5803 5801 5799 5797 5795 5793 5791 5789 5788 5786 5784 5783 5781 5780 5779 5777 5776 5775 5774 5772 5771 5770 5769 5768 5767 5766 5765 5764 5763 5762 5761 5760
5820 5818 5817 5815 5814 5812 5811 5809 5808 5806 5805 5803 5801 5800 5798 5796 5794 5793 5791 5789 5788 5786 5785 5784 5782 5781 5780 5779 5777 5776 5775 5774 5773 5771 5770 5769 5768 5767 5766 5765 5764 5762 5761
5816 5815 5814 5813 5811 5810 5809 5807 5806 5805 5803 5802 5801 5799 5798 5796 5795 5793 5792 5790 5789 5788 5786 5785 5784 5783 5781 5780 5779 5778 5777 5775 5774 5773 5772 5770 5769 5768 5767 5766 5764 5763 5761
Wind_Speed
6 7 8 9 9 11 13 14 16 17 18 20 21 22 23 24 24 25 26 26 26 26 26 27 27 28 28 28 27 27 27 27 26 26 26 26 25 25 24 24 24 24 24
6 6 6 5 6 7 8 10 12 13 14 15 17 19 20 21 21 22 23 23 24 24 23 23 24 25 26 26 26 26 26 25 25 24 23 24 24 24 24 24 24 24 24
10 9 7 7 6 5 4 4 5 6 8 10 11 13 14 16 17 18 18 19 20 21 21 21 21 21 22 22 22 23 23 23 22 22 22 23 23 23 23 24 24 25 25
13 12 11 9 8 7 6 5 4 4 5 6 7 9 10 11 12 13 14 16 17 18 18 17 18 18 19 20 20 19 20 20 20 20 21 21 21 22 23 23 24 24 25
15 15 14 12 11 11 10 8 6 4 4 4 5 6 6 8 9 10 11 12 13 14 14 15 15 16 17 17 17 18 18 19 19 20 20 20 21 21 22 22 22 23 24
17 17 16 14 13 13 13 12 11 9 8 6 6 6 6 7 8 8 9 10 11 11 12 12 13 13 14 15 15 16 17 18 18 18 19 19 19 20 21 21 22 22 23
19 19 18 17 15 15 14 13 12 11 11 9 8 7 7 6 7 7 8 9 10 11 11 11 12 12 13 14 15 15 16 16 17 17 18 18 19 19 20 20 21 22 22
20 20 19 18 17 16 15 14 13 12 12 11 10 10 9 7 7 7 7 8 8 9 11 11 12 12 13 14 14 15 15 15 15 16 17 17 17 18 18 19 19 19 20
20 20 20 19 19 17 16 15 14 14 13 13 12 11 10 8 7 7 6 7 7 8 9 10 11 12 12 13 13 14 14 13 14 15 15 16 16 16 17 17 17 17 17
21 20 20 20 19 19 18 17 16 15 15 14 13 12 11 9 7 6 6 6 6 7 7 7 9 10 10 11 11 11 12 12 12 13 14 14 14 14 14 14 15 15 15
22 21 21 20 20 20 19 19 18 17 16 15 14 13 12 10 8 7 5 5 5 5 6 6 6 7 7 8 9 10 10 11 11 11 12 12 12 12 12 12 12 13 13
22 22 21 21 21 20 20 20 19 18 18 17 16 14 13 12 10 8 6 5 4 3 3 3 4 5 5 6 8 8 9 10 10 10 10 10 10 9 9 10 10 10 11
23 22 22 22 21 21 20 20 20 20 19 18 17 16 15 14 12 10 8 6 5 3 2 2 2 2 3 4 5 6 7 7 8 8 7 7 7 8 8 8 8 9 9
22 23 22 22 22 22 21 21 20 20 20 19 19 18 17 16 14 13 11 9 7 6 4 3 2 2 2 2 3 4 4 5 5 5 6 6 7 6 6 6 6 6 6
21 22 22 22 22 22 22 21 21 20 20 20 19 19 18 17 16 15 14 12 10 9 8 6 5 4 3 2 1 0 1 2 3 3 4 4 4 4 4 4 3 4 4
20 21 21 22 22 22 22 21 21 21 20 19 19 19 19 18 17 16 15 14 13 12 11 10 9 8 7 5 4 3 2 2 1 0 1 2 2 2 2 2 2 2 2
18 19 20 20 21 21 21 21 21 21 20 20 19 18 18 18 18 17 16 16 15 14 13 12 12 11 10 9 7 6 5 5 4 4 3 3 2 2 2 1 1 1 1
17 18 18 19 20 20 20 20 20 20 20 19 19 19 18 18 18 17 17 17 16 16 15 14 13 13 12 12 11 10 9 9 8 7 6 6 5 5 4 3 3 2 2
16 16 17 17 18 18 19 19 19 19 19 19 18 18 18 18 17 17 17 16 16 16 16 16 15 15 14 13 13 12 12 12 11 11 10 9 8 7 7 6 5 5 5
14 15 15 16 16 17 17 18 18 18 18 17 17 17 17 16 16 16 16 15 15 15 15 15 15 15 15 14 14 13 13 13 13 12 11 11 10 9 9 8 7 7 6
13 13 14 14 14 15 15 16 16 16 17 16 16 16 16 15 15 15 15 14 14 14 14 14 14 14 14 14 14 14 13 13 13 13 12 11 11 10 9 9 8 8 8
12 12 13 13 13 13 13 14 14 15 15 15 15 15 14 14 14 14 14 14 14 13 13 13 13 13 13 13 13 13 13 13 12 12 12 11 11 10 10 9 9 9 8
13 12 12 12 12 12 12 12 12 13 13 13 13 13 13 13 12 12 12 12 12 12 12 13 13 13 13 12 12 12 12 12 11 11 11 10 10 10 9 9 9 9 9
13 13 13 12 12 12 11 11 11 11 11 11 11 12 11 11 11 11 10 10 10 11 11 11 11 12 12 11 11 11 11 11 11 10 10 10 10 10 10 9 9 9 9
14 14 14 13 13 12 12 11 11 10 10 10 10 10 10 10 10 9 9 8 8 8 8 9 9 9 10 10 10 10 10 10 10 10 10 10 10 9 9 9 9 9 10
16 16 15 15 14 14 13 13 12 11 11 10 10 9 9 9 8 8 8 7 7 7 6 6 6 7 7 7 7 8 8 8 8 8 8 8 8 8 9 9 9 9 10
Wind_Direction
315 301 295 289 281 272 267 264 263 262 259 257 257 257 258 258 259 258 257 258 256 256 254 253 254 253 252 250 248 246 245 244 245 246 246 248 247 250 255 258 261 265 268
4 350 339 323 306 294 277 267 263 260 260 260 259 257 257 259 260 258 256 255 254 255 255 253 252 252 249 248 247 246 244 244 244 244 246 247 248 251 255 259 262 265 267
28 20 14 6 356 344 328 303 281 271 265 263 263 261 262 262 261 257 256 253 251 251 252 250 249 249 248 246 246 244 244 244 244 245 248 248 249 252 256 259 263 265 267
34 31 29 26 20 14 7 356 334 309 293 284 277 275 268 262 260 255 253 250 247 248 248 249 251 250 249 246 245 245 246 247 249 250 250 249 250 253 257 260 263 266 269
39 37 36 36 34 28 25 22 15 357 337 316 298 289 285 284 278 269 259 251 247 246 246 248 250 250 251 250 250 251 250 249 248 248 248 251 253 256 259 261 264 267 269
38 38 38 38 36 33 31 29 27 23 14 0 346 328 314 304 292 285 277 264 258 253 252 252 251 251 252 251 250 251 250 248 247 248 250 253 255 257 260 262 264 267 269
41 41 39 38 37 35 31 27 24 20 14 5 356 348 334 317 300 293 286 276 266 259 257 254 254 252 252 252 253 253 251 250 250 250 252 254 256 259 263 265 267 269 269
40 39 38 37 36 33 31 29 24 18 11 5 358 350 338 323 307 293 283 274 265 259 257 257 256 253 254 254 253 253 252 253 254 255 256 257 258 261 264 267 269 271 272
37 36 35 34 32 31 28 26 22 19 14 10 5 359 351 339 325 311 297 285 272 265 262 260 256 255 255 252 251 252 251 252 256 259 259 260 262 263 266 268 269 271 273
35 34 33 32 31 30 29 26 24 21 18 15 12 7 3 358 349 335 314 301 287 275 270 266 259 256 255 251 247 249 252 255 258 260 260 260 263 265 266 268 269 270 274
34 33 32 31 30 30 30 29 26 24 22 20 18 15 13 10 6 360 348 329 310 294 281 273 269 262 257 252 250 250 253 257 260 261 262 262 262 264 266 269 269 272 275
32 32 32 31 31 31 31 30 28 27 26 25 23 22 22 21 17 13 9 1 348 325 295 277 271 266 259 255 252 254 256 258 259 260 261 260 260 264 266 269 271 274 277
31 31 31 31 31 30 30 30 30 30 30 30 30 30 29 29 29 28 28 28 26 21 6 336 304 276 267 255 249 251 257 258 258 258 257 256 259 264 267 270 272 274 278
30 30 31 31 30 30 30 30 31 32 33 34 35 35 36 36 36 37 39 42 48 50 47 44 28 359 310 268 249 248 255 255 253 252 255 258 262 263 267 269 270 273 279
28 28 29 30 30 30 31 32 32 33 34 35 37 38 39 40 42 43 44 48 51 53 53 53 50 45 49 64 90 195 245 255 257 258 258 262 258 258 261 261 264 271 284
25 26 27 28 29 30 31 32 33 34 35 36 38 39 41 42 43 45 47 50 53 55 55 55 55 57 62 66 71 77 73 62 46 333 256 240 234 232 236 236 246 264 298
21 23 24 26 28 29 30 32 33 34 36 38 39 40 42 43 45 48 50 52 54 56 57 58 59 61 63 64 66 70 70 68 72 74 81 92 105 124 137 137 122 115 33
18 19 21 24 26 28 29 30 32 34 36 38 39 41 42 43 46 49 53 55 57 58 59 60 61 62 64 64 66 69 69 71 74 76 77 82 88 93 94 94 88 79 58
13 15 17 20 22 25 27 29 31 32 34 36 38 40 43 45 47 49 52 54 57 58 60 61 62 64 66 67 67 68 69 70 73 75 78 79 81 84 84 83 81 77 68
5 8 11 14 17 21 24 26 29 31 32 34 36 38 41 44 45 47 49 52 54 56 58 60 61 62 64 66 67 69 70 71 73 74 75 76 77 79 79 79 77 72 65
357 1 4 7 10 14 17 21 24 27 30 32 34 36 39 42 44 46 47 48 50 52 55 56 58 60 62 65 66 68 69 71 72 72 72 73 73 72 71 70 69 65 61
345 349 354 358 1 4 8 12 15 19 23 26 30 32 35 39 42 44 45 47 49 52 53 55 57 59 62 64 65 66 67 68 68 68 68 68 68 67 65 63 61 57 52
337 338 340 344 349 353 356 360 4 8 13 17 21 25 28 31 35 38 41 43 46 49 52 54 56 59 61 63 64 64 65 65 65 65 64 63 61 60 57 55 52 48 43
322 326 329 331 334 338 342 346 350 354 358 4 9 14 18 22 25 29 33 37 41 44 46 49 52 54 56 57 58 59 60 61 60 59 58 56 55 53 52 49 45 41 36
311 312 316 319 321 323 326 329 333 337 340 344 350 356 2 7 11 15 19 23 27 32 36 40 43 46 47 48 50 51 52 52 51 50 49 48 47 46 43 40 37 33 27
303 304 305 307 310 312 313 314 316 318 321 324 327 332 337 343 348 354 358 1 4 9 14 19 24 28 31 33 34 34 35 36 36 36 37 38 37 34 30 26 22 17 12